DW8935 Weather Reports


time (UTC)temp
F
wind
direction
speed
knots
gust
knots
rain 1hr
in
rain 24hr
in
rain mn
in
humidity
%
barometer
mb
20260902141509 53 325 2.6 7.0 0.00 0.00 0.00 69 1010.2
20260902140002 53 292 1.7 8.7 0.00 0.00 0.00 68 1010.4
20260902134601 53 308 3.5 7.8 0.00 0.00 0.00 67 1010.5
20260902133108 54 300 2.6 8.7 0.00 0.00 0.00 67 1010.7
20260902131602 54 327 3.5 8.7 0.00 0.00 0.00 67 1010.8
20260902130053 54 302 2.6 8.7 0.00 0.00 0.00 66 1010.9
20260902124552 55 287 0.9 7.8 0.00 0.00 0.00 66 1011.1
20260902123106 56 309 1.7 6.1 0.00 0.00 0.00 64 1011.3
20260902121558 56 283 3.5 8.7 0.00 0.00 0.00 64 1011.4
20260902120105 56 316 1.7 7.8 0.00 0.00 0.00 69 1011.6
20260902114550 55 309 0.0 4.3 0.00 0.00 0.00 70 1011.6
20260902113051 56 347 0.0 2.6 0.00 0.00 0.00 69 1011.7
20260902111556 56 347 0.0 3.5 0.00 0.00 0.00 69 1011.7
20260902110048 56 348 0.9 4.3 0.00 0.00 0.00 70 1011.8
20260902104548 55 318 0.0 2.6 0.00 0.00 0.00 70 1011.8
20260902103048 55 325 0.0 2.6 0.00 0.00 0.00 70 1011.9
20260902101550 55 309 0.0 1.7 0.00 0.00 0.00 70 1011.7
20260902094548 55 308 0.0 0.0 0.00 0.00 0.00 70 1011.4
20260902093048 54 308 0.0 0.0 0.00 0.00 0.00 70 1011.2
20260902091552 54 308 0.0 1.7 0.00 0.00 0.00 70 1011.1
20260902090047 55 284 0.0 0.9 0.00 0.00 0.00 69 1011.0
20260902084547 55 281 0.0 0.0 0.00 0.00 0.00 68 1011.0
20260902083049 56 281 0.0 0.0 0.00 0.00 0.00 66 1011.1
20260902081549 56 281 0.0 0.9 0.00 0.00 0.00 65 1011.0
20260902080048 57 278 0.0 3.5 0.00 0.00 0.00 65 1011.1
20260902074552 58 269 0.0 2.6 0.00 0.00 0.00 64 1011.0
20260902073046 58 258 1.7 7.8 0.00 0.00 0.00 62 1010.9
20260902071547 59 263 0.9 6.1 0.00 0.00 0.00 62 1010.9
20260902070045 59 243 1.7 6.1 0.00 0.00 0.00 60 1010.9
20260902064543 60 248 1.7 6.1 0.00 0.00 0.00 60 1011.1
20260902063054 60 286 1.7 10.4 0.00 0.00 0.00 60 1011.4
20260902061600 61 219 3.5 10.4 0.00 0.00 0.00 59 1011.5
20260902060039 61 248 4.3 10.4 0.00 0.00 0.00 58 1011.7
20260902054544 61 271 5.2 12.2 0.00 0.00 0.00 59 1011.8
20260902053039 61 271 3.5 12.2 0.00 0.00 0.00 59 1011.9
20260902051544 61 228 5.2 11.3 0.00 0.00 0.00 59 1012.0
20260902050056 61 263 6.1 12.2 0.00 0.00 0.00 59 1012.1
20260902044538 61 223 5.2 11.3 0.00 0.00 0.00 58 1012.2
20260902043045 61 228 5.2 11.3 0.00 0.00 0.00 58 1012.1
20260902041539 61 270 5.2 9.6 0.00 0.00 0.00 59 1012.2
20260902040039 61 238 3.5 11.3 0.00 0.00 0.00 59 1012.4
20260902034538 61 290 5.2 10.4 0.00 0.00 0.00 59 1012.5
20260902033038 61 212 4.3 9.6 0.00 0.00 0.00 59 1012.9
20260902031538 60 250 4.3 10.4 0.00 0.00 0.00 59 1013.0
20260902030037 61 249 4.3 11.3 0.00 0.00 0.00 59 1013.4
20260902024546 60 231 5.2 11.3 0.00 0.00 0.00 59 1013.7
20260902023036 60 259 5.2 11.3 0.00 0.00 0.00 60 1014.0
20260902021535 59 262 4.3 9.6 0.00 0.00 0.00 62 1014.2
20260902020036 58 244 4.3 11.3 0.00 0.00 0.00 63 1014.4
20260902014534 59 232 4.3 10.4 0.00 0.00 0.00 62 1014.5
20260902013039 58 270 3.5 9.6 0.00 0.00 0.00 65 1014.7
20260902011536 57 277 4.3 7.8 0.00 0.00 0.00 66 1014.9
20260902010032 57 262 1.7 10.4 0.00 0.00 0.00 67 1015.1
20260902004532 57 286 0.9 9.6 0.00 0.00 0.00 68 1015.2
20260902003032 57 255 3.5 8.7 0.00 0.00 0.00 68 1015.3
20260902001531 57 284 3.5 8.7 0.00 0.00 0.00 69 1015.4
20260902000030 56 265 1.7 8.7 0.00 0.00 0.00 71 1015.5
20260901234529 56 257 2.6 8.7 0.00 0.00 0.00 72 1015.6
20260901233028 56 227 2.6 9.6 0.00 0.00 0.00 73 1015.4
20260901231529 55 244 3.5 10.4 0.00 0.00 0.00 73 1015.5
20260901230029 55 212 1.7 9.6 0.00 0.00 0.00 74 1015.5
20260901224534 55 287 4.3 7.8 0.00 0.00 0.00 76 1015.5
20260901223024 55 271 5.2 10.4 0.00 0.00 0.00 79 1015.3
20260901221522 55 250 2.6 7.8 0.00 0.00 0.00 81 1015.2
20260901220020 54 273 0.9 6.1 0.00 0.00 0.00 81 1014.9
20260901214518 54 231 2.6 7.0 0.00 0.00 0.00 81 1014.8
20260901213028 54 263 1.7 7.0 0.00 0.00 0.00 82 1014.7
20260901211514 55 261 2.6 8.7 0.00 0.00 0.00 83 1014.7
20260901210013 55 263 2.6 7.0 0.00 0.00 0.00 83 1014.4
20260901204511 55 247 0.9 6.1 0.00 0.00 0.00 84 1014.2
20260901203007 55 239 1.7 8.7 0.00 0.00 0.00 86 1013.7
20260901201508 55 241 3.5 6.1 0.00 0.00 0.00 87 1013.6
20260901200002 55 284 0.9 7.0 0.00 0.00 0.00 88 1013.4
20260901194601 56 275 0.0 4.3 0.00 0.00 0.00 87 1013.3
20260901193057 56 263 0.9 6.1 0.00 0.00 0.00 87 1013.2
20260901191611 56 250 0.9 7.8 0.00 0.00 0.00 86 1013.1
20260901190053 57 237 3.5 9.6 0.00 0.00 0.00 85 1013.0
20260901184609 57 242 2.6 8.7 0.00 0.00 0.00 84 1012.7
20260901183051 58 223 2.6 8.7 0.00 0.00 0.00 84 1012.4
20260901181553 59 230 2.6 10.4 0.00 0.00 0.00 81 1012.3
20260901180040 60 267 5.2 12.2 0.00 0.00 0.00 78 1012.0
20260901174552 60 298 0.9 5.2 0.00 0.00 0.00 77 1011.7
20260901173039 60 268 0.9 5.2 0.00 0.00 0.00 77 1011.5
20260901171541 61 303 0.9 7.8 0.00 0.00 0.00 76 1011.4
20260901170038 61 296 3.5 9.6 0.00 0.00 0.00 76 1011.4
20260901164541 61 244 3.5 8.7 0.00 0.00 0.00 75 1011.6
20260901163035 61 284 1.7 7.8 0.00 0.00 0.00 76 1011.6
20260901161542 60 288 2.6 9.6 0.00 0.00 0.00 77 1011.7
20260901160058 60 315 2.6 7.0 0.00 0.00 0.00 78 1011.8
20260901154535 60 317 3.5 7.8 0.00 0.00 0.00 79 1011.9
20260901153033 60 294 1.7 6.1 0.00 0.00 0.00 79 1011.9
20260901151532 60 327 2.6 7.8 0.00 0.00 0.00 78 1011.9
20260901150030 60 315 1.7 7.0 0.00 0.00 0.00 77 1011.8
20260901144527 61 271 2.6 8.7 0.00 0.00 0.00 76 1011.8
20260901143025 61 269 2.6 10.4 0.00 0.00 0.00 73 1011.9